Flag for Guyana Weather past 2 weeks in Linden, Guyana

Now
91 °F

Partly sunny.


Feels Like: 100 °F
Forecast: 73 / 91 °F
Wind: 7 mph from East

Location: Georgetown/Cheddi Jagan International Airport

Current Time: Aug 27, 2015 at 4:02:51 PM

Latest Report: Aug 27, 2015 at 3:00 PM


Visibility: N/A

Pressure: 29.83 "Hg

Humidity: 56%

Dew point: 73 °F

Location of LindenLocation

Historic Weather in Linden — Graph

°F

Linden temperature yesterday

Maximum temperature yesterday: 91 °F (at 12:00 PM)
Minimum temperature yesterday: 75 °F (at 3:00 AM)
Average temperature yesterday: 82 °F

Past Weeks' High & Low Weather Summary

 TemperatureHumidityPressure
High93 °F (Aug 20, 4:00 PM)100% (Aug 13, 2:00 AM)29.98 "Hg (Aug 13, 2:00 AM)
Low73 °F (Aug 13, 5:00 AM)52% (Aug 23, 1:00 PM)29.77 "Hg (Aug 22, 4:00 PM)
Average80 °F86%29.88 "Hg
* Reported Aug 12 3:00 PM — Aug 27 3:00 PM, Linden, Weather by CustomWeather, © 2015

Note: Actual official high and low records may vary slightly from our data, if they occured in-between our weather recording intervals... More about our weather records

Advertising

Linden weather history for previous 24 hours

 ConditionsComfort  
Time TempWeatherWind HumidityBarometerVisibility
3:00 PM
Thu, Aug 27
91 °FPartly sunny.7 mph56%29.83 "HgN/A
2:00 PM93 °FPartly sunny.7 mph53%29.86 "HgN/A
1:00 PM91 °FPartly sunny.12 mph56%29.86 "HgN/A
12:00 PM90 °FPartly sunny.12 mph63%29.89 "HgN/A
11:00 AM88 °FPartly sunny.9 mph66%29.92 "HgN/A
10:00 AM86 °FPartly sunny.9 mph75%29.95 "HgN/A
9:00 AM84 °FPartly sunny.9 mph79%29.95 "HgN/A
8:30 AM82 °FClear.12 mph84%29.92 "HgN/A
8:00 AM82 °FPassing clouds.5 mph84%29.92 "HgN/A
7:00 AM77 °FScattered clouds.5 mph100%29.92 "HgN/A
6:00 AM75 °FScattered clouds.5 mph94%29.89 "Hg6 mi
5:00 AM73 °FPassing clouds.No wind100%29.89 "HgN/A
4:00 AM73 °FPassing clouds.No wind100%29.86 "HgN/A
2:00 AM77 °FPassing clouds.No wind94%29.86 "HgN/A
12:00 AM77 °FPassing clouds.5 mph94%29.89 "HgN/A
11:00 PM
Wed, Aug 26
77 °FPassing clouds.5 mph100%29.89 "HgN/A
10:00 PM77 °FClear.5 mph100%29.89 "Hg10 mi
9:00 PM77 °FClear.5 mph100%29.89 "Hg10 mi
8:00 PM79 °FPassing clouds.5 mph94%29.86 "HgN/A
7:00 PM81 °FPassing clouds.9 mph89%29.86 "HgN/A
6:00 PM84 °FScattered clouds.9 mph74%29.83 "HgN/A
5:00 PM90 °FPassing clouds.14 mph63%29.80 "HgN/A
4:00 PM91 °FScattered clouds.12 mph59%29.80 "HgN/A
Weather by CustomWeather, © 2015

See weather overviewHow to use our weather pages